Temperature
26 23 23 23 24 25 26 26 26 27 28 25 22 21 20 19 18 18 18 17 16 16 17 17 18 18 19 19 19 19 18 17 17 17 18 18 18 19 19 19 19 19 19 19
23 24 25 27 27 27 26 26 25 26 27 25 21 20 18 18 17 16 16 15 15 15 16 17 17 18 18 18 18 18 17 16 16 17 17 18 18 19 19 19 19 19 19 19
24 26 28 28 27 27 27 26 26 26 25 24 23 20 18 17 17 16 15 14 14 14 14 15 16 16 17 17 17 17 17 16 16 17 17 18 18 18 19 19 18 18 19 19
25 26 26 26 27 27 25 27 27 26 23 21 22 19 18 17 16 16 15 14 14 14 14 15 15 15 15 15 15 16 16 16 16 17 17 17 18 18 18 18 18 18 18 18
23 25 25 25 27 27 27 27 26 24 23 21 20 19 17 17 16 15 15 14 14 14 14 15 15 15 15 15 15 15 15 15 16 16 17 17 17 18 18 18 18 18 18 18
24 25 25 26 27 27 26 24 22 19 18 20 19 19 17 16 15 15 15 15 14 15 15 15 15 15 15 15 15 15 15 15 15 15 16 16 16 16 17 17 17 17 17 17
23 24 25 26 26 26 25 21 19 20 18 18 18 18 16 16 16 16 15 15 15 15 15 15 15 15 15 15 15 15 15 15 14 14 15 15 15 15 15 15 15 16 16 16
21 22 25 26 26 25 25 21 20 20 20 18 18 17 16 16 16 16 16 16 15 15 15 15 15 15 15 15 15 15 14 14 14 14 14 14 13 13 13 13 14 14 14 15
20 22 25 27 27 26 25 23 21 19 20 18 17 16 16 16 16 16 16 16 16 15 15 15 15 15 15 14 14 14 14 14 13 13 13 13 13 13 13 13 12 13 13 13
22 22 24 25 25 25 24 23 19 19 19 19 18 17 16 15 15 16 15 16 16 16 15 15 15 15 15 14 14 13 13 13 13 12 12 12 12 12 11 11 12 12 12 12
22 21 22 22 23 24 24 22 19 18 18 18 18 17 17 15 15 15 15 16 16 16 15 15 15 15 14 14 13 13 13 12 12 12 12 12 11 11 11 11 11 11 11 11
22 18 19 21 23 24 24 23 20 19 19 17 17 16 17 16 15 16 16 16 16 15 15 15 15 14 14 13 13 13 12 12 12 12 11 11 11 11 11 10 10 10 10 10
21 18 18 19 20 21 22 21 20 17 16 17 16 16 16 15 15 15 15 15 15 15 15 14 14 13 13 13 13 12 12 12 11 11 11 11 11 10 10 10 10 10 10 10
21 18 19 19 19 21 21 21 20 17 16 17 17 16 14 14 14 14 15 15 15 14 14 13 13 13 13 12 12 12 12 11 11 11 11 11 10 10 10 10 10 10 10 10
19 19 20 20 21 21 20 20 20 18 18 17 16 15 13 13 13 14 14 14 14 13 13 13 13 12 12 12 12 12 11 11 11 11 11 10 10 10 10 10 9 9 9 9
17 18 18 19 21 20 19 19 19 18 17 17 15 14 14 14 14 14 14 14 13 13 13 13 12 12 12 12 12 11 11 11 11 11 10 10 10 10 9 9 9 9 9 9
18 18 18 18 19 20 16 17 17 17 15 15 13 13 12 12 12 13 13 13 13 13 12 12 12 12 12 11 11 11 11 11 11 10 10 10 10 10 9 9 9 8 8 8
19 17 16 17 18 19 17 18 18 16 14 14 14 13 13 13 13 13 13 13 12 12 12 12 11 11 11 10 10 10 10 10 9 9 9 9 9 9 9 8 8 8 8 8
18 18 17 16 18 18 18 18 17 16 14 14 13 12 13 13 12 12 13 12 12 12 11 11 10 10 9 9 9 8 8 8 8 8 8 8 8 8 8 8 8 7 7 7
17 16 16 17 18 17 17 18 18 17 14 13 13 12 12 11 9 10 12 12 11 11 10 9 9 8 8 7 7 7 6 6 6 6 6 6 6 6 6 7 7 7 7 7
18 16 16 16 17 16 16 17 16 14 13 13 13 13 12 11 10 12 12 11 10 10 9 8 8 7 7 6 6 5 5 5 5 5 5 5 5 5 5 6 6 6 6 6
17 16 16 15 16 15 16 15 14 13 14 14 13 13 12 12 12 11 11 10 9 8 8 7 6 6 5 5 5 4 4 4 4 4 4 4 4 4 4 5 5 5 6 6
16 15 14 14 14 15 16 15 15 14 14 13 13 12 12 12 11 10 10 9 8 8 7 6 5 5 5 5 4 4 4 4 4 4 4 4 4 4 4 4 5 5 5 5
17 16 15 15 15 15 15 15 14 14 13 13 12 12 12 11 10 9 9 8 7 7 6 5 5 5 5 5 5 5 4 4 4 4 4 4 4 4 4 4 4 5 5 5
16 16 15 15 15 15 15 15 14 14 13 13 12 12 11 10 9 9 8 7 7 6 5 5 5 5 5 5 5 5 5 4 4 4 4 4 4 4 4 4 4 5 5 6
16 15 14 14 15 14 15 14 14 13 13 12 11 11 10 10 9 8 7 7 6 6 5 5 5 5 5 5 5 5 5 5 4 4 4 4 4 4 4 4 5 5 5 6
Wind_Speed
3 2 6 10 9 8 6 4 4 5 7 11 16 18 21 21 21 19 16 14 15 13 10 9 9 8 7 7 7 8 7 9 6 4 4 1 2 1 2 4 6 7 7 7
2 6 12 9 6 6 4 4 4 5 8 8 15 18 19 23 22 19 18 16 12 10 10 10 8 7 7 5 5 6 5 4 4 4 3 2 2 2 3 4 4 6 7 7
6 4 6 6 7 6 5 3 4 4 5 7 7 9 14 16 19 19 18 15 13 11 10 9 9 8 8 9 9 9 7 5 5 5 3 2 1 2 1 1 3 5 7 7
4 7 10 10 7 3 5 5 3 4 4 3 4 2 6 8 15 16 15 12 11 10 9 9 10 10 10 9 9 9 7 8 8 7 5 4 2 2 2 2 3 4 6 7
5 6 8 7 6 3 4 4 3 3 1 1 4 5 1 4 9 11 9 9 8 7 8 9 9 9 9 9 8 7 7 8 9 9 9 7 6 4 4 3 3 2 3 5
3 4 3 5 6 2 1 6 8 7 5 3 4 4 1 3 3 5 5 5 4 5 6 7 7 7 6 6 6 6 6 7 8 9 9 9 8 7 7 6 5 4 3 3
7 7 6 3 4 6 6 7 6 7 6 3 1 4 2 4 5 6 5 4 3 3 3 4 4 4 3 3 3 4 5 5 6 6 7 6 7 7 7 7 6 5 4 4
2 6 6 4 4 5 2 8 6 3 4 3 2 1 3 5 4 4 4 5 4 3 2 3 3 3 2 2 2 1 2 2 3 4 4 4 4 4 4 5 5 6 5 5
5 6 7 7 5 2 1 1 6 6 0 1 1 1 2 5 5 5 4 4 4 3 3 2 3 4 5 5 4 3 2 2 3 3 3 4 4 4 5 6 5 5 5 6
5 4 6 7 7 7 3 2 6 4 1 2 2 4 5 8 8 7 5 4 3 2 2 3 4 5 6 6 6 5 4 5 5 6 6 5 6 6 6 5 6 6 6 6
3 2 7 7 5 3 5 5 5 3 4 3 2 5 4 8 7 5 4 3 2 2 4 6 7 6 6 5 5 5 6 7 7 8 8 8 8 8 7 6 7 7 6 6
4 4 3 6 6 2 4 1 4 3 2 2 1 5 3 2 2 3 2 2 3 5 7 8 8 6 4 5 6 7 8 9 10 10 9 10 10 9 9 9 9 8 8 7
4 5 5 9 10 9 7 7 5 6 4 3 2 5 5 4 4 4 4 6 7 8 9 8 6 4 5 7 8 9 10 10 11 10 10 11 11 10 11 11 11 10 9 9
4 5 4 2 7 5 4 8 8 7 4 2 1 2 7 6 6 7 7 9 10 9 8 7 7 7 9 9 10 10 11 11 11 11 11 11 12 12 12 12 11 11 11 10
6 4 4 4 2 7 9 9 10 9 5 2 3 2 4 6 5 7 9 11 10 9 8 10 10 10 10 11 11 11 11 11 11 11 11 12 12 12 11 11 11 11 11 12
5 5 6 6 5 10 10 11 8 7 5 4 3 1 4 6 6 8 11 12 11 10 12 13 13 12 12 12 12 12 12 12 12 12 13 12 11 11 11 11 11 10 11 11
3 4 5 5 7 4 6 6 6 4 4 4 2 4 8 8 9 10 11 11 11 13 15 15 14 14 14 14 14 14 14 13 12 13 13 12 12 11 11 11 9 10 11 11
4 3 3 2 7 4 3 1 5 4 4 4 1 6 7 9 10 9 10 10 13 15 15 15 14 14 14 14 14 14 14 13 12 12 12 12 11 11 10 10 9 10 9 9
4 5 3 2 2 2 0 3 2 1 3 2 4 8 9 9 8 7 10 11 14 16 16 15 14 16 14 14 15 15 15 14 13 13 12 11 10 10 10 10 10 9 8 8
5 6 5 3 2 4 3 4 4 2 3 2 7 8 10 10 10 8 11 13 13 14 13 12 12 13 14 15 15 16 16 16 16 15 14 13 11 11 10 10 10 9 8 9
5 6 5 2 2 3 3 5 5 4 7 7 6 8 8 8 9 12 15 13 12 12 13 13 14 14 15 16 16 17 17 17 16 16 15 14 12 11 11 10 9 9 8 8
4 3 1 2 2 5 4 4 3 5 6 6 6 7 8 10 12 12 12 13 14 13 13 14 14 16 16 16 16 18 19 18 16 15 15 14 12 12 12 9 8 8 8 8
5 8 6 6 6 5 2 5 5 5 4 5 6 8 8 10 10 12 11 12 12 14 15 15 17 19 18 17 16 19 19 18 17 15 14 13 12 10 10 9 9 8 7 7
3 4 4 2 3 5 4 3 1 1 3 5 6 8 8 9 11 11 11 12 14 14 15 16 19 20 21 19 18 17 18 17 15 15 13 10 9 9 8 8 7 7 7 7
7 5 4 2 2 2 2 3 2 3 5 6 7 7 9 9 9 9 11 13 14 14 16 17 18 19 21 20 20 18 16 15 14 12 10 8 7 7 7 6 6 7 7 7
1 6 6 5 6 4 5 4 2 5 6 7 8 9 9 8 9 10 12 12 13 17 17 18 19 19 20 19 19 17 15 13 12 10 9 6 5 5 5 5 5 6 7 10
Wind_Direction
306 116 243 247 217 223 264 297 325 328 353 54 66 58 47 46 50 46 46 53 67 68 60 50 51 53 55 61 70 67 38 347 336 336 305 308 280 273 235 213 193 184 180 172
325 248 241 254 299 319 332 1 351 340 8 55 75 69 61 53 55 52 49 52 55 49 43 41 42 45 44 47 72 81 56 2 324 299 283 271 260 251 240 223 200 190 180 171
207 260 315 319 316 330 340 5 350 347 14 37 91 60 58 58 61 57 53 48 44 45 45 46 52 51 53 48 39 42 32 22 343 325 324 323 339 345 357 265 220 212 192 177
6 350 351 338 316 349 315 305 342 349 27 348 59 94 53 60 59 56 51 48 42 40 44 47 52 51 49 48 46 41 27 19 4 5 16 22 10 329 298 277 254 235 208 190
331 334 335 320 302 338 276 312 359 353 72 19 22 107 63 43 53 58 58 57 52 45 50 52 53 52 49 45 44 34 27 22 14 19 24 25 15 341 322 330 318 278 244 222
297 282 259 272 297 311 35 31 28 39 55 17 327 119 11 44 76 86 83 81 81 68 59 59 56 55 48 44 46 43 34 23 14 22 27 24 17 1 357 352 343 325 306 282
329 316 298 273 308 337 50 64 22 360 5 290 314 98 155 138 142 133 139 149 139 113 101 90 79 68 59 49 39 35 37 20 12 17 19 16 9 4 359 346 336 332 326 313
299 303 293 292 237 223 257 130 146 213 245 266 1 131 188 176 181 163 161 154 150 150 145 132 141 156 173 170 156 97 39 2 352 2 355 351 351 346 332 329 326 323 317 307
198 265 292 299 304 150 316 276 173 150 93 88 215 151 250 211 206 198 188 158 148 155 154 164 193 205 209 206 203 196 198 263 288 293 297 301 308 309 305 306 307 309 312 318
174 255 306 327 11 14 125 127 64 69 59 327 266 223 216 205 219 211 195 179 177 183 203 226 234 231 221 208 208 209 214 234 250 257 258 260 261 268 276 287 296 299 301 310
100 75 324 355 14 347 12 34 84 101 140 144 287 273 224 204 208 191 180 171 196 257 267 265 260 246 229 211 204 210 224 234 245 248 248 250 251 253 257 263 269 275 283 296
40 92 340 305 301 360 40 23 120 120 326 104 147 282 305 183 147 112 68 7 314 298 289 284 283 275 262 247 241 235 236 238 242 245 248 250 251 251 253 256 260 263 268 274
68 77 23 348 345 360 23 22 65 107 89 63 50 312 8 44 51 40 10 332 313 306 306 308 312 295 273 259 253 248 244 243 244 243 244 250 253 253 253 254 257 258 259 264
94 78 126 219 267 302 40 47 53 77 78 34 32 322 359 3 360 349 337 322 313 310 314 317 304 281 269 260 253 250 248 246 246 242 241 243 247 248 248 250 251 252 251 253
76 50 342 302 5 76 71 56 62 71 76 82 330 99 345 337 331 321 316 314 313 315 313 305 295 282 275 270 264 257 252 248 245 242 241 241 242 243 244 246 248 249 249 250
67 49 15 358 70 93 68 45 45 47 37 21 44 78 314 314 323 322 319 317 313 308 308 304 297 291 284 278 273 266 260 255 247 242 239 236 235 236 236 239 242 246 248 249
62 65 39 333 324 74 28 23 46 38 33 61 47 298 305 318 319 309 308 307 302 305 306 303 298 291 288 285 282 279 274 266 255 246 241 235 230 229 230 235 237 238 242 245
126 94 101 351 15 11 239 82 76 97 98 69 356 294 297 297 293 287 293 297 301 302 302 300 298 297 295 293 294 292 289 282 271 261 254 245 234 230 228 228 232 236 237 236
134 127 92 73 347 237 285 10 10 294 192 53 342 322 316 305 303 290 281 289 294 297 299 302 304 307 309 309 310 309 304 298 292 285 273 260 248 241 234 229 230 232 234 236
56 83 92 64 335 265 246 315 300 319 258 332 352 328 316 330 330 304 300 300 299 301 305 311 314 313 313 312 312 309 304 299 293 289 282 272 261 253 247 240 235 232 230 235
29 40 63 50 285 275 287 319 35 55 280 299 308 307 310 309 285 293 306 310 311 312 315 316 316 316 314 314 313 308 304 300 297 293 287 277 264 254 249 245 240 235 234 235
136 118 121 98 334 274 317 49 81 241 258 285 295 297 299 293 293 301 309 314 319 321 320 321 321 319 317 316 314 310 306 302 299 294 288 282 272 265 265 249 240 233 227 229
155 177 179 180 209 220 122 139 191 212 262 283 292 300 301 306 307 314 316 320 321 321 323 324 324 322 321 319 315 310 307 304 301 296 289 281 273 265 260 253 246 239 227 226
244 168 126 135 156 160 145 148 223 275 305 305 306 308 314 314 316 322 322 323 325 327 327 330 329 327 325 323 319 311 309 308 303 299 295 287 277 270 261 253 243 235 228 222
207 155 128 163 172 162 340 343 350 5 350 334 324 318 322 323 323 324 325 327 329 330 331 331 329 326 324 324 322 319 317 315 312 308 301 293 284 276 269 257 243 232 225 213
198 152 154 210 218 191 253 280 23 20 344 329 329 327 327 329 326 328 327 327 329 331 332 330 329 327 325 325 324 324 322 319 317 314 307 297 289 284 277 272 274 254 239 231
Height
1494 1500 1503 1496 1492 1491 1490 1493 1493 1484 1473 1479 1491 1496 1498 1495 1493 1496 1497 1496 1496 1496 1496 1495 1495 1494 1494 1492 1488 1484 1485 1482 1481 1486 1490 1493 1496 1498 1500 1501 1501 1501 1502 1502
1499 1500 1488 1483 1482 1483 1486 1492 1491 1484 1476 1483 1496 1504 1506 1503 1504 1504 1504 1504 1503 1501 1499 1498 1496 1495 1492 1491 1487 1485 1486 1482 1483 1488 1490 1493 1496 1497 1499 1500 1499 1500 1500 1500
1498 1491 1483 1483 1484 1486 1486 1489 1488 1487 1482 1484 1491 1508 1510 1511 1509 1508 1509 1510 1510 1508 1504 1501 1498 1496 1493 1491 1489 1488 1488 1486 1488 1491 1491 1493 1496 1497 1497 1498 1497 1497 1498 1497
1494 1488 1485 1486 1485 1484 1492 1480 1479 1482 1492 1504 1498 1520 1518 1515 1512 1512 1513 1513 1513 1510 1507 1503 1499 1496 1494 1493 1492 1492 1492 1491 1492 1491 1491 1493 1494 1495 1495 1495 1495 1495 1494 1494
1498 1491 1489 1489 1484 1480 1483 1476 1479 1484 1493 1504 1505 1517 1523 1515 1518 1517 1517 1515 1513 1512 1508 1505 1502 1500 1499 1498 1497 1497 1496 1495 1494 1492 1492 1492 1492 1493 1493 1492 1491 1491 1490 1490
1492 1487 1486 1484 1479 1477 1477 1482 1489 1497 1506 1520 1515 1519 1525 1522 1521 1518 1517 1516 1514 1512 1510 1507 1505 1504 1503 1502 1501 1499 1498 1497 1495 1493 1491 1491 1489 1489 1489 1488 1486 1486 1485 1485
1499 1488 1481 1479 1481 1479 1480 1501 1521 1523 1531 1529 1516 1520 1525 1519 1517 1515 1515 1514 1513 1512 1511 1509 1507 1506 1506 1504 1502 1500 1498 1497 1495 1493 1491 1489 1488 1486 1484 1483 1481 1480 1479 1479
1513 1507 1486 1479 1481 1486 1483 1497 1522 1531 1533 1529 1520 1524 1523 1517 1516 1514 1513 1513 1513 1512 1511 1510 1508 1507 1506 1505 1503 1500 1498 1495 1493 1491 1489 1488 1486 1483 1481 1479 1477 1475 1473 1472
1515 1509 1485 1479 1475 1478 1486 1493 1495 1513 1516 1529 1528 1525 1521 1517 1516 1514 1513 1513 1512 1512 1510 1509 1508 1506 1505 1502 1500 1498 1496 1493 1491 1488 1486 1485 1483 1480 1477 1475 1473 1471 1469 1467
1501 1506 1491 1482 1478 1479 1482 1487 1502 1514 1525 1532 1527 1526 1525 1518 1514 1513 1513 1512 1512 1511 1509 1507 1505 1503 1500 1498 1496 1494 1492 1491 1488 1485 1483 1480 1478 1476 1473 1471 1468 1466 1464 1462
1495 1505 1501 1492 1492 1491 1487 1492 1501 1513 1518 1529 1534 1529 1511 1512 1510 1512 1513 1513 1512 1510 1507 1505 1501 1498 1495 1493 1491 1490 1488 1486 1484 1481 1478 1475 1472 1470 1468 1466 1463 1461 1458 1456
1496 1508 1513 1502 1490 1484 1486 1491 1499 1516 1519 1521 1531 1530 1509 1510 1511 1513 1513 1513 1511 1508 1505 1501 1497 1494 1491 1489 1487 1485 1483 1480 1478 1475 1471 1468 1466 1463 1461 1459 1457 1455 1452 1451
1498 1512 1525 1519 1508 1496 1496 1495 1497 1508 1519 1525 1532 1530 1513 1513 1514 1514 1514 1512 1508 1505 1501 1497 1494 1491 1488 1485 1482 1478 1475 1472 1469 1466 1463 1461 1458 1456 1454 1452 1450 1448 1446 1445
1495 1512 1522 1529 1520 1506 1506 1503 1502 1509 1524 1526 1524 1524 1521 1517 1516 1514 1512 1509 1505 1501 1497 1493 1489 1486 1482 1478 1474 1470 1467 1463 1460 1457 1454 1452 1450 1448 1446 1444 1442 1441 1439 1438
1499 1513 1510 1508 1503 1503 1507 1507 1507 1512 1516 1523 1522 1523 1523 1518 1516 1513 1509 1504 1500 1495 1492 1487 1483 1478 1474 1469 1465 1461 1457 1453 1450 1447 1444 1442 1440 1439 1437 1435 1434 1432 1431 1430
1504 1512 1513 1513 1506 1507 1513 1512 1511 1513 1515 1518 1519 1523 1519 1516 1513 1509 1504 1499 1494 1490 1485 1480 1475 1470 1465 1460 1455 1450 1446 1442 1439 1436 1433 1431 1430 1428 1427 1426 1424 1423 1422 1421
1508 1513 1520 1523 1512 1510 1526 1520 1518 1519 1520 1522 1526 1525 1518 1514 1510 1506 1500 1496 1491 1486 1480 1473 1468 1462 1456 1450 1444 1439 1435 1431 1427 1424 1421 1419 1418 1417 1416 1415 1415 1414 1413 1413
1508 1514 1523 1526 1524 1530 1526 1515 1515 1519 1523 1521 1521 1519 1515 1512 1507 1502 1498 1492 1486 1480 1473 1466 1460 1453 1447 1441 1435 1429 1424 1419 1415 1411 1409 1407 1405 1404 1404 1404 1404 1404 1404 1403
1503 1511 1522 1531 1530 1526 1521 1516 1516 1518 1521 1520 1518 1514 1510 1506 1501 1497 1493 1488 1482 1475 1468 1461 1454 1447 1439 1433 1426 1419 1413 1408 1403 1399 1396 1394 1393 1391 1391 1391 1392 1392 1393 1393
1506 1510 1523 1528 1530 1532 1525 1516 1513 1514 1519 1517 1514 1510 1506 1501 1499 1492 1487 1482 1475 1469 1462 1455 1447 1440 1432 1425 1418 1410 1403 1397 1392 1387 1384 1381 1380 1379 1378 1379 1380 1381 1382 1383
1517 1521 1527 1530 1531 1526 1520 1515 1515 1526 1525 1515 1512 1508 1504 1500 1497 1488 1481 1475 1469 1463 1456 1448 1440 1432 1424 1416 1408 1400 1393 1387 1381 1376 1372 1369 1367 1366 1366 1367 1368 1370 1371 1373
1521 1527 1529 1531 1534 1532 1517 1516 1520 1522 1515 1512 1509 1505 1501 1496 1490 1484 1477 1471 1464 1456 1449 1441 1433 1424 1416 1409 1400 1392 1384 1377 1371 1365 1360 1357 1355 1354 1354 1356 1357 1359 1361 1363
1515 1518 1521 1524 1526 1518 1516 1516 1516 1515 1512 1509 1505 1501 1497 1491 1485 1479 1473 1466 1459 1451 1443 1435 1426 1417 1409 1401 1394 1384 1376 1368 1361 1356 1351 1347 1345 1345 1345 1346 1348 1350 1352 1355
1511 1508 1513 1516 1516 1515 1515 1514 1513 1511 1509 1505 1502 1498 1493 1487 1481 1475 1469 1462 1454 1446 1438 1429 1421 1411 1403 1395 1387 1379 1370 1362 1354 1348 1344 1341 1338 1338 1338 1339 1340 1342 1345 1347
1506 1508 1512 1514 1513 1513 1512 1511 1509 1507 1504 1501 1498 1494 1490 1484 1478 1472 1465 1458 1450 1442 1434 1425 1417 1408 1399 1390 1382 1374 1365 1357 1350 1344 1340 1337 1335 1333 1333 1334 1335 1337 1339 1342
1504 1507 1511 1514 1510 1510 1510 1508 1506 1504 1501 1498 1494 1490 1486 1481 1475 1469 1462 1454 1446 1438 1430 1421 1413 1405 1396 1388 1379 1371 1363 1355 1348 1342 1337 1334 1332 1331 1331 1331 1332 1334 1336 1338